Latest Weather Observations for Kununurra Airport

IDD60801

Issued at 1:31 pm CST Sunday 2 August 2015 (issued every 30 minutes, with the page automatically refreshed every 10 minutes)

About weather observations | Map of weather stations | Latest weather observations for NT | Other Formats
Station Details ID: 002056 Name: KUNUNURRA AERO Lat: -15.78 Lon: 128.71 Height: 44.0 m
Data from the previous 72 hours. | See also: Recent months at Kununurra Airport
Date/Time
CST
Temp
°C
App
Temp
°C
Dew
Point
Rel
Hum
%
Delta-T
°C
Wind Press
QNH
hPa
Press
MSL
hPa
Rain
since 9 am
mm
Dir
 
Spd
km/h
Gust
km/h
Spd
kts
Gust
kts
02/01:00pm 32.8 28.0 2.8 15 15.3 E 17 28 9 15 1015.9 1015.7 0.0
02/12:30pm 33.1 28.1 3.5 15 15.3 E 19 24 10 13 1016.3 1016.1 0.0
02/12:00pm 31.9 27.5 4.8 18 14.2 ESE 17 26 9 14 1016.7 1016.6 0.0
02/11:30am 31.7 26.7 4.4 18 14.2 ESE 20 26 11 14 1017.0 1016.9 0.0
02/11:00am 30.5 27.3 6.9 22 12.7 SE 13 19 7 10 1017.3 1017.2 0.0
02/10:30am 28.2 26.6 8.9 29 10.6 SE 7 11 4 6 1017.7 1017.6 0.0
02/09:30am 23.9 23.1 11.0 44 7.2 SSE 6 9 3 5 1017.5 1017.4 0.0
02/09:00am 21.8 21.2 11.8 53 5.6 E 6 7 3 4 1017.2 1017.1 0.0
02/08:30am 19.5 20.3 12.5 64 3.9 CALM 0 0 0 0 1016.7 1016.6 0.0
02/08:00am 16.5 17.2 12.3 76 2.3 CALM 0 0 0 0 1016.4 1016.2 0.0
02/07:30am 14.8 14.7 12.0 83 1.5 S 4 7 2 4 1016.1 1015.9 0.0
02/07:00am 15.4 15.8 12.5 83 1.6 S 2 6 1 3 1015.8 1015.6 0.0
02/06:30am 15.0 14.9 12.2 83 1.5 SSW 4 6 2 3 1015.5 1015.3 0.0
02/06:00am 14.6 15.4 12.4 87 1.2 CALM 0 0 0 0 1015.2 1015.0 0.0
02/05:30am 14.9 15.6 12.3 84 1.4 CALM 0 0 0 0 1015.2 1015.0 0.0
02/05:00am 14.7 15.4 12.3 85 1.3 CALM 0 0 0 0 1015.2 1015.0 0.0
02/04:30am 15.0 15.6 11.9 82 1.7 CALM 0 0 0 0 1015.2 1015.0 0.0
02/04:00am 14.8 14.9 12.8 88 1.1 SE 4 9 2 5 1015.3 1015.1 0.0
02/03:30am 16.2 16.5 12.2 77 2.2 ESE 2 6 1 3 1015.3 1015.1 0.0
02/03:00am 15.8 15.9 12.7 82 1.7 SE 4 7 2 4 1015.3 1015.1 0.0
02/02:30am 15.8 15.1 11.9 77 2.1 SW 7 7 4 4 1015.3 1015.1 0.0
02/02:00am 16.5 15.8 13.3 81 1.8 E 9 11 5 6 1015.3 1015.1 0.0
02/01:30am 16.6 16.9 13.4 81 1.8 SSE 4 6 2 3 1015.4 1015.2 0.0
02/01:00am 17.3 17.0 12.8 75 2.5 SSE 6 9 3 5 1015.5 1015.3 0.0
02/12:30am 17.3 18.2 13.0 76 2.4 CALM 0 0 0 0 1015.5 1015.3 0.0
02/12:00am 17.7 17.1 12.3 70 3.0 SSW 7 9 4 5 1015.6 1015.4 0.0
 
Date/Time
CST
Temp
°C
App
Temp
°C
Dew
Point
Rel
Hum
%
Delta-T
°C
Wind Press
QNH
hPa
Press
MSL
hPa
Rain
since 9 am
mm
Dir
 
Spd
km/h
Gust
km/h
Spd
kts
Gust
kts
01/11:30pm 19.3 19.1 11.7 61 4.2 ENE 4 9 2 5 1015.6 1015.4 0.0
01/11:00pm 20.3 20.0 12.7 61 4.3 N 6 7 3 4 1015.6 1015.4 0.0
01/10:30pm 20.3 19.5 11.6 57 4.8 NNE 7 9 4 5 1015.5 1015.3 0.0
01/10:00pm 20.8 19.6 11.6 55 5.1 NNE 9 11 5 6 1015.5 1015.3 0.0
01/09:30pm 19.9 18.8 12.0 60 4.4 NNE 9 11 5 6 1015.3 1015.1 0.0
01/09:00pm 22.1 22.4 13.4 57 5.0 E 4 6 2 3 1014.9 1014.7 0.0
01/08:30pm 21.7 22.3 13.2 58 4.9 S 2 11 1 6 1014.5 1014.3 0.0
01/08:00pm 23.5 22.7 11.8 47 6.6 SSW 7 7 4 4 1014.1 1013.9 0.0
01/07:30pm 24.2 25.1 13.0 49 6.5 CALM 0 0 0 0 1013.5 1013.3 0.0
01/07:00pm 26.3 27.6 14.2 47 7.2 CALM 0 0 0 0 1013.3 1013.1 0.0
01/06:30pm 30.1 28.9 9.4 27 11.6 SW 6 7 3 4 1013.1 1012.9 0.0
01/06:00pm 32.1 29.5 6.0 19 14.0 WSW 9 11 5 6 1013.0 1012.8 0.0
01/05:30pm 32.9 31.0 6.6 19 14.3 SE 6 9 3 5 1013.0 1012.8 0.0
01/05:00pm 32.9 30.4 4.9 17 14.8 S 7 11 4 6 1013.0 1012.8 0.0
01/04:30pm 32.9 30.0 4.6 17 14.9 SE 9 15 5 8 1012.9 1012.7 0.0
01/04:00pm 33.2 29.8 5.9 18 14.7 SE 13 19 7 10 1013.0 1012.8 0.0
01/03:30pm 33.4 30.2 5.3 17 15.0 S 11 15 6 8 1013.2 1013.0 0.0
01/03:00pm 33.0 31.3 6.1 18 14.5 S 4 11 2 6 1013.6 1013.4 0.0
01/02:30pm 32.5 29.4 5.5 18 14.4 ESE 11 20 6 11 1014.1 1013.9 0.0
01/02:00pm 32.8 29.7 5.4 18 14.6 SE 11 17 6 9 1014.6 1014.4 0.0
01/01:30pm 32.8 29.9 6.4 19 14.3 NE 11 19 6 10 1015.0 1014.8 0.0
01/01:00pm 32.0 29.2 5.1 18 14.2 SSE 9 15 5 8 1015.7 1015.5 0.0
01/12:30pm 31.4 26.8 1.5 15 14.8 SE 15 22 8 12 1016.2 1016.0 0.0
01/12:00pm 31.4 26.2 0.2 13 15.1 SE 17 24 9 13 1016.7 1016.6 0.0
01/11:30am 31.0 25.9 0.5 14 14.8 SE 17 26 9 14 1017.0 1016.9 0.0
01/11:00am 30.1 26.2 1.2 15 14.1 SE 11 19 6 10 1017.3 1017.2 0.0
01/10:30am 28.5 26.3 5.1 22 12.1 SSE 6 9 3 5 1017.6 1017.5 0.0
01/10:00am 26.9 24.9 6.2 26 10.8 SE 6 7 3 4 1017.7 1017.6 0.0
01/09:30am 25.1 23.6 4.8 27 10.2 W 2 7 1 4 1017.4 1017.3 0.0
01/09:00am 21.7 21.4 10.1 47 6.3 NNE 2 6 1 3 1017.0 1016.9 0.0
01/08:30am 19.2 18.9 10.0 55 4.9 SE 2 7 1 4 1016.6 1016.5 0.0
01/08:00am 15.1 14.5 10.5 74 2.4 SSW 4 7 2 4 1016.3 1016.2 0.0
01/07:30am 14.0 14.2 10.4 79 1.9 CALM 0 0 0 0 1016.1 1016.0 0.0
01/07:00am 14.2 13.7 10.6 79 1.9 E 4 7 2 4 1015.9 1015.8 0.0
01/06:30am 15.2 15.2 11.3 77 2.1 SE 2 9 1 5 1015.7 1015.6 0.0
01/06:00am 15.0 14.6 11.1 77 2.1 E 4 7 2 4 1015.5 1015.4 0.0
01/05:30am 15.2 15.1 9.6 69 2.9 CALM 0 0 0 0 1015.1 1015.0 0.0
01/05:00am 15.3 14.8 10.8 74 2.4 SSW 4 7 2 4 1015.1 1015.0 0.0
01/04:30am 15.7 14.7 11.0 73 2.5 SSW 7 11 4 6 1014.9 1014.8 0.0
01/04:00am 15.4 14.4 10.9 74 2.4 SSE 7 9 4 5 1015.0 1014.9 0.0
01/03:30am 15.5 14.7 11.0 74 2.4 ESE 6 9 3 5 1014.9 1014.8 0.0
01/03:00am 15.7 16.3 11.8 77 2.1 CALM 0 0 0 0 1014.9 1014.8 0.0
01/02:30am 15.3 15.6 11.0 75 2.3 CALM 0 0 0 0 1015.0 1014.9 0.0
01/02:00am 15.8 15.1 11.5 75 2.3 ESE 6 7 3 4 1015.1 1015.0 0.0
01/01:30am 15.5 15.9 11.4 76 2.2 CALM 0 0 0 0 1015.0 1014.9 0.0
01/01:00am 16.3 16.7 11.1 71 2.8 CALM 0 0 0 0 1015.2 1015.1 0.0
01/12:30am 16.0 16.1 10.3 69 3.0 CALM 0 0 0 0 1015.3 1015.2 0.0
01/12:00am 16.5 16.9 11.3 71 2.8 CALM 0 0 0 0 1015.4 1015.3 0.0
 
Date/Time
CST
Temp
°C
App
Temp
°C
Dew
Point
Rel
Hum
%
Delta-T
°C
Wind Press
QNH
hPa
Press
MSL
hPa
Rain
since 9 am
mm
Dir
 
Spd
km/h
Gust
km/h
Spd
kts
Gust
kts
31/11:30pm 16.3 16.0 10.2 67 3.2 SE 2 6 1 3 1015.4 1015.3 0.0
31/11:00pm 16.7 16.2 10.7 67 3.2 SE 4 6 2 3 1015.5 1015.4 0.0
31/10:30pm 19.4 18.7 11.4 60 4.4 SE 6 6 3 3 1015.4 1015.3 0.0
31/10:00pm 19.1 18.2 10.6 58 4.6 SE 6 7 3 4 1015.2 1015.1 0.0
31/09:30pm 19.1 18.5 11.7 62 4.1 SSE 6 7 3 4 1015.1 1015.0 0.0
31/09:00pm 19.5 18.6 11.3 59 4.5 S 7 9 4 5 1015.0 1014.9 0.0
31/08:30pm 20.2 19.6 12.4 61 4.4 S 7 9 4 5 1014.6 1014.5 0.0
31/08:00pm 20.4 20.7 10.9 54 5.2 CALM 0 0 0 0 1014.1 1014.0 0.0
31/07:30pm 22.5 22.3 10.5 46 6.6 SE 2 6 1 3 1013.8 1013.7 0.0
31/07:00pm 24.6 24.7 10.1 40 8.0 CALM 0 0 0 0 1013.6 1013.5 0.0
31/06:30pm 28.6 26.8 7.2 26 11.5 SE 6 7 3 4 1013.4 1013.3 0.0
31/06:00pm 30.5 27.6 2.6 17 14.0 SE 7 11 4 6 1013.2 1013.1 0.0
31/05:30pm 31.1 27.7 2.1 15 14.5 SE 9 13 5 7 1013.0 1012.9 0.0
31/05:00pm 31.6 28.2 1.6 14 14.9 SE 9 13 5 7 1013.0 1012.9 0.0
31/04:30pm 31.7 27.9 1.9 15 14.9 E 11 17 6 9 1013.0 1012.9 0.0
31/04:00pm 31.5 27.4 2.2 15 14.7 S 13 17 7 9 1013.2 1013.1 0.0
31/03:30pm 31.7 27.4 1.0 14 15.1 S 13 20 7 11 1013.6 1013.5 0.0
31/03:00pm 31.7 27.5 1.9 15 14.9 SE 13 22 7 12 1014.0 1013.9 0.0
31/02:30pm 31.7 27.6 2.2 15 14.8 SE 13 20 7 11 1014.7 1014.6 0.0
31/02:00pm 31.1 27.0 2.0 15 14.5 ESE 13 19 7 10 1015.1 1015.0 0.0
31/01:30pm 30.5 25.1 2.2 16 14.1 ESE 20 32 11 17 1015.8 1015.7 0.0
31/01:00pm 30.8 25.1 0.8 14 14.6 SE 20 28 11 15 1016.4 1016.3 0.0
31/12:30pm 30.0 24.7 1.8 16 13.9 E 19 30 10 16 1017.1 1017.0 0.0
31/12:00pm 30.0 24.4 1.4 16 14.0 ENE 20 28 11 15 1017.5 1017.4 0.0
31/11:30am 29.5 23.6 -0.7 14 14.2 ESE 20 32 11 17 1018.0 1017.9 0.0
31/11:00am 28.3 22.7 -0.2 15 13.4 ESE 19 24 10 13 1018.4 1018.3 0.0
31/10:30am 27.5 21.1 -1.8 14 13.3 ESE 22 30 12 16 1018.8 1018.6 0.0
31/10:00am 26.9 21.5 -1.1 16 12.8 ESE 17 24 9 13 1018.8 1018.6 0.0
31/09:30am 24.9 22.2 3.8 25 10.4 SSE 7 11 4 6 1018.9 1018.7 0.0
31/09:00am 22.4 20.6 3.5 29 9.1 SW 2 6 1 3 1018.6 1018.4 0.0
31/08:30am 19.0 18.1 7.6 47 5.8 S 2 6 1 3 1018.0 1017.9 0.0
31/08:00am 15.3 14.1 7.9 61 3.7 WSW 4 7 2 4 1017.7 1017.6 0.0
31/07:30am 14.2 14.0 8.9 70 2.7 CALM 0 0 0 0 1017.5 1017.4 0.0
31/07:00am 14.2 13.1 10.6 79 1.9 SSW 7 9 4 5 1017.0 1016.9 0.0
31/06:30am 13.5 12.4 10.8 84 1.4 SSE 7 9 4 5 1016.6 1016.5 0.0
31/06:00am 15.3 15.0 11.4 77 2.1 SSE 4 7 2 4 1016.5 1016.4 0.0
31/05:30am 15.6 14.6 10.9 73 2.5 S 7 9 4 5 1016.4 1016.3 0.0
31/05:00am 15.3 14.5 11.0 75 2.3 S 6 7 3 4 1016.4 1016.3 0.0
31/04:30am 15.4 14.1 9.8 69 2.9 ESE 7 9 4 5 1016.4 1016.3 0.0
31/04:00am 16.0 14.4 8.8 62 3.7 ESE 7 9 4 5 1016.5 1016.4 0.0
31/03:30am 16.3 14.3 7.3 55 4.5 ESE 7 9 4 5 1016.7 1016.6 0.0
31/03:00am 15.6 14.0 8.7 63 3.5 SE 7 9 4 5 1016.8 1016.7 0.0
31/02:30am 15.4 13.7 8.5 63 3.5 SE 7 9 4 5 1017.0 1016.9 0.0
31/02:00am 15.8 15.6 9.2 65 3.4 CALM 0 0 0 0 1017.2 1017.1 0.0
31/01:30am 15.8 14.2 8.1 60 3.9 SE 6 7 3 4 1017.4 1017.3 0.0
31/01:00am 16.0 14.4 8.1 59 4.0 SE 6 7 3 4 1017.5 1017.4 0.0
31/12:30am 17.0 15.3 10.0 63 3.7 E 9 15 5 8 1017.4 1017.3 0.0
31/12:00am 17.1 16.8 10.1 63 3.7 SE 2 7 1 4 1017.5 1017.4 0.0
 
Date/Time
CST
Temp
°C
App
Temp
°C
Dew
Point
Rel
Hum
%
Delta-T
°C
Wind Press
QNH
hPa
Press
MSL
hPa
Rain
since 9 am
mm
Dir
 
Spd
km/h
Gust
km/h
Spd
kts
Gust
kts
30/11:30pm 17.3 17.3 9.7 61 4.0 CALM 0 6 0 3 1017.9 1017.8 0.0
30/11:00pm 17.9 16.5 9.7 58 4.3 ESE 7 11 4 6 1017.7 1017.6 0.0
30/10:30pm 18.1 17.0 8.4 53 5.0 SE 4 9 2 5 1017.6 1017.5 0.0
30/10:00pm 20.1 18.1 7.1 43 6.6 S 7 11 4 6 1017.6 1017.5 0.0
30/09:30pm 21.6 20.2 9.0 44 6.7 ESE 6 11 3 6 1017.4 1017.3 0.0
30/09:00pm 25.3 22.1 5.2 27 10.2 SE 11 13 6 7 1017.2 1017.1 0.0
30/08:30pm 25.3 22.3 5.8 28 10.0 SSE 11 13 6 7 1016.8 1016.7 0.0
30/08:00pm 25.5 22.5 6.2 29 10.0 SSE 11 13 6 7 1016.4 1016.3 0.0
30/07:30pm 26.0 23.5 6.4 28 10.2 SSE 9 13 5 7 1016.0 1015.9 0.0
30/07:00pm 27.2 24.7 6.7 27 10.8 SSE 9 13 5 7 1015.7 1015.6 0.0
30/06:30pm 28.9 26.8 6.8 24 11.8 SSE 7 11 4 6 1015.5 1015.4 0.0
30/06:00pm 30.6 27.8 5.3 20 13.3 SSE 9 15 5 8 1015.3 1015.2 0.0
30/05:30pm 31.4 27.1 3.1 16 14.4 SE 15 20 8 11 1015.0 1014.9 0.0
30/05:00pm 31.6 27.5 2.4 15 14.7 SE 13 17 7 9 1015.2 1015.1 0.0
30/04:30pm 32.0 28.5 3.7 16 14.6 SE 11 17 6 9 1015.3 1015.2 0.0
30/04:00pm 31.7 26.6 3.0 16 14.6 SE 19 24 10 13 1015.5 1015.4 0.0
30/03:30pm 32.2 28.3 3.4 16 14.8 ESE 13 19 7 10 1015.7 1015.6 0.0

Other Formats:

Comma delimited format used in spreadsheet applications
http://www.bom.gov.au/fwo/IDD60801/IDD60801.94216.axf

JavaScript Object Notation format (JSON) in row-major order
http://www.bom.gov.au/fwo/IDD60801/IDD60801.94216.json